Ricerca:  
› Italiano
English
Nederlands
Français
Español
Italiano
Türk
Login/Sign-up
2018
2016
»
«

 2017   »   52nd Vuelta al Táchira en Bicicleta (2.2)

Stage 5  »  Socopó  ›  Santo Domingo de Mérida   (141.7k)

« precedente   prossimo »
  Rimuovi filtri
RnkCorridoreAgeSquadraUCIPntGCGC-TimeTempo
1 Salinas Yonathan26754+1:584:18:13 4:18:13
2 Flores Jhorman José23329+2:260:04 0:04
3 Sosa Iván Ramiro19Androni - Sidermec - Bottecchia116+2:150:07 0:07
4 Murillo Juan348+2:200:08 0:08
5 Monsalve Yonathan275+2:10,, 0:08
6 Mendoza José2211+2:400:15 0:15
7 Campos Roniel2310+2:330:16 0:16
8 Briceño Yimmi José3013+2:460:19 0:19
9 Becerra Eduin3112+2:430:27 0:27
10 Rujano José Humberto3416+3:500:36 0:36
11 Delgado Yeison3914+3:070:38 0:38
12 Nava John381+0:000:40 0:40
13 Gonzalez Ronald Javier357+2:170:44 0:44
14 Rodríguez Jackson312+0:241:03 1:03
15 Diaz Luis Eusebio333+1:291:21 1:21
16 Paredes Anderson Timoteo2117+3:511:39 1:39
17 Medina Rafael2240+18:101:43 1:43
18 Mendoza Gabriel José2019+4:431:48 1:48
19 Osorio Dario2218+4:091:51 1:51
20 Mojica José29Start - Vaxes Cycling Team 25+7:433:11 3:11
21 Mora Luis Guillermo2222+6:203:17 3:17
22 Meneses Henry2230+11:46,, 3:17
23 Parra Edwin Arnulfo3221+6:163:20 3:20
24 Largo Luis Alberto2615+3:283:28 3:28
25 Abreu Daniel3020+5:483:36 3:36
26 Medina Manuel Eduardo4023+6:413:47 3:47
27 Herrera Freddy26+8:493:51 3:51
28 Soto Andres2424+7:144:11 4:11
29* Burmann Wolfgang2554*+24:565:04 5:04
29 Camargo Nelson2738+16:575:35 5:35
30 Briceno Manuel2828+8:585:55 5:55
31 Márquez José2527+8:566:17 6:17
32 Aular Orluis2029+9:157:09 7:09
33 Rivera Kevin18Androni - Sidermec - Bottecchia61+32:49,, 7:09
34 Castro Carlos2749+21:397:50 7:50
35 Camargo Wilston3733+14:428:56 8:56
36 Sanchez Carlos2132+14:329:37 9:37
37 SÁnchez Nelson2034+14:5011:22 11:22
38 Abreu Jorge2631+13:4511:33 11:33
39 Rivas Angel2750+21:4811:50 11:50
40 Ubeto Miguel Armando4035+15:25,, 11:50
41 Rico Fredy37+16:0112:25 12:25
42 García José2588+53:5712:44 12:44
43 Alvarado Adrian2536+15:31,, 12:44
44 Ochoa Gaudy1973+40:2713:08 13:08
45 GonzÁlez Jordan2256+26:1313:25 13:25
46 Vargas Fredy3460+32:1313:53 13:53
47 Rojas Maximo3339+17:1514:04 14:04
48 Contreras Jose2453+24:1814:47 14:47
49 Ramirez Yurgen1843+19:1215:43 15:43
50 Briceno Fernando2642+19:04,, 15:43
51 Sanchez Yerzon3978+46:1915:54 15:54
52 Henao Michael2651+21:5716:05 16:05
53 Soca Alvaro2287+52:4516:17 16:17
54 Belandria Juan64+36:3916:21 16:21
55 Rivas Robinson2257+27:5817:53 17:53
56 Nieto Cristofer2276+41:45,, 17:53
57 Ruiz Diego Fernando41+18:53,, 17:53
58 Caicedo Jhoan2447+21:19,, 17:53
59 Yustre Kristian Javier2344+19:28,, 17:53
60 Castellanos Óscar54+25:10,, 17:53
61 Perez Victor Rafael2165+36:46,, 17:53
62 Avendano Fabio3255+25:46,, 17:53
63 Flores Ruben3672+40:0218:25 18:25
64 Moreno Omar2252+23:3018:39 18:39
65 Montilla Darwin2246+20:11,, 18:39
66 GÓmez Daniel2066+37:42,, 18:39
67 Torres Carlos2445+20:0218:53 18:53
68 Molina Carlos Eduardo2259+31:55,, 18:53
69 Consuegra Frank2079+47:0018:58 18:58
70 Roman Maky3063+35:3019:05 19:05
71 Betancur Jader2448+21:2719:12 19:12
72 Cruz Adellyn2584+51:4620:05 20:05
73 Piñero José2094+59:0523:36 23:36
74 Sequera Pedro2558+28:0925:18 25:18
75 Vielma Kleiver83+49:12,, 25:18
76 Piñeiros José27103+1:04:4825:40 25:40
77 Sarmiento Johnatan Fernando24Massi - Kuwait Cycling Project118+1:24:2229:05 29:05
78 Bravo Wilmer3591+56:2829:07 29:07
79 Carmona Neimanuel3269+39:2130:03 30:03
80 Gutierrez Cristian2389+54:4831:59 31:59
81 Mateus Ivan2395+59:42,, 31:59
82 Diaz Luis Enrique2486+52:4232:43 32:43
83 Capellan Wellington2096+1:00:2032:45 32:45
84 Sainz Alvaro31112+1:18:21,, 32:45
85 Moreno Victor31120+1:30:50,, 32:45
86 Botello Freddy92+57:3732:47 32:47
87 Pinto Oscar75+41:3232:49 32:49
88 Pinto Luis2171+39:53,, 32:49
89 Garcia Artur Alberto3280+47:04,, 32:49
90 Yaguaro Isaac2377+42:18,, 32:49
91 Castillo Jose21107+1:10:20,, 32:49
92 Martinez Clever111+1:17:29,, 32:49
93 Tello Elias22105+1:07:59,, 32:49
94 Alarcon Jose2862+35:20,, 32:49
95 Frapporti Mattia22Androni - Sidermec - Bottecchia74+40:32,, 32:49
96 Bonusi Raffaello24Androni - Sidermec - Bottecchia67+38:39,, 32:49
97 Taborda Brayan21115+1:21:57,, 32:49
98 Gutierrez Pedro2770+39:23,, 32:49
99 Palma Pedro27113+1:20:47,, 32:49
100 Vera Hernandez Hidalgo20110+1:14:58,, 32:49
101 Castano Neubery2493+58:22,, 32:49
102 Linarez Leangel1998+1:02:2733:30 33:30
103 Rojas Alexander3385+51:5534:39 34:39
104 Ruiz Juan José28108+1:11:39,, 34:39
105 Rojas Mauro27104+1:05:31,, 34:39
106 Moreno José26106+1:08:2435:13 35:13
107 Cabrera Hugo Horacio2468+39:0036:04 36:04
108 Pérez Jesús Maria32100+1:03:1736:06 36:06
109 Marino Joel117+1:24:0936:18 36:18
110 Palini Andrea27Androni - Sidermec - Bottecchia97+1:01:2536:22 36:22
111 Cornejo Cristian21119+1:25:29,, 36:22
112 Figueroa Jatniel2082+47:5236:29 36:29
113 Benfatto Marco29Androni - Sidermec - Bottecchia102+1:04:42,, 36:29
114 Landaeta Giorgio3490+55:02,, 36:29
115 German Rafael Adolfo29114+1:21:2036:32 36:32
116 Arquello Sergio Carlos23121+1:37:30,, 36:32
117 Torres Cristian2581+47:2836:53 36:53
118 Sanchez Augusto3399+1:02:41,, 36:53
119 Fuentes Yorman24101+1:03:4738:41 38:41
120 Valderrama Héctor22116+1:24:0945:37 45:37
121 Leira Brandon23109+1:12:0645:38 45:38
DNF Casanova Edgar+ - 16:32:28 -4:18:13 -4:18:13
DNF Florez Carlos+ - 16:32:28,, -4:18:13
DNF Pulgar Angel+ - 16:32:28,, -4:18:13
DNF Gomez Pastor+ - 16:32:28,, -4:18:13
DNF Sepulveda Kevin23Massi - Kuwait Cycling Project+ - 16:32:28,, -4:18:13
RnkPrev▼▲CorridoreAgeSquadraUCIGCGC-TimeTempoTime won/lost
11- Nava John3811+0:00 16:32:28 16:32:28+0:00
22- Rodríguez Jackson312+0:240:24 0:24+0:23
34▲1 Diaz Luis Eusebio333+1:291:29 1:29+0:41
412▲8 Salinas Yonathan264+1:581:58 1:58-0:50
510▲5 Monsalve Yonathan275+2:102:10 2:10-0:32
615▲9 Sosa Iván Ramiro19Androni - Sidermec - Bottecchia6+2:152:15 2:15-0:37
78▲1 Gonzalez Ronald Javier357+2:172:17 2:17+0:04
817▲9 Murillo Juan348+2:202:20 2:20-0:32
924▲15 Flores Jhorman José239+2:262:26 2:26-0:42
1020▲10 Campos Roniel2310+2:332:33 2:33-0:24
1122▲11 Mendoza José2211+2:402:40 2:40-0:25
1219▲7 Becerra Eduin3112+2:432:43 2:43-0:13
1323▲10 Briceño Yimmi José3013+2:462:46 2:46-0:21
1425▲11 Delgado Yeison3914+3:073:07 3:07-0:02
153▼12 Largo Luis Alberto2615+3:283:28 3:28+2:48
1638▲22 Rujano José Humberto3416+3:503:50 3:50-0:04
1716▼1 Paredes Anderson Timoteo2117+3:513:51 3:51+0:59
1821▲3 Osorio Dario2218+4:094:09 4:09+1:11
1931▲12 Mendoza Gabriel José2019+4:434:43 4:43+1:08
2014▼6 Abreu Daniel3020+5:485:48 5:48+2:56
2132▲11 Parra Edwin Arnulfo3221+6:166:16 6:16+2:40
2236▲14 Mora Luis Guillermo2222+6:206:20 6:20+2:37
2330▲7 Medina Manuel Eduardo4023+6:416:41 6:41+3:07
2435▲11 Soto Andres2424+7:147:14 7:14+3:31
2545▲20 Mojica José29Start - Vaxes Cycling Team 25+7:437:43 7:43+2:31
2648▲22 Herrera Freddy26+8:498:49 8:49+3:11
2727- Márquez José2527+8:568:56 8:56+5:37
2834▲6 Briceno Manuel2828+8:588:58 8:58+5:15
2911▼18 Aular Orluis2029+9:159:15 9:15+6:29
3057▲27 Meneses Henry2230+11:4611:46 11:46+2:37
3113▼18 Abreu Jorge2631+13:4513:45 13:45+10:53
3247▲15 Sanchez Carlos2132+14:3214:32 14:32+8:57
3349▲16 Camargo Wilston3733+14:4214:42 14:42+8:16
3441▲7 SÁnchez Nelson2034+14:5014:50 14:50+10:42
3543▲8 Ubeto Miguel Armando4035+15:2515:25 15:25+11:10
3628▼8 Alvarado Adrian2536+15:3115:31 15:31+12:04
3744▲7 Rico Fredy37+16:0116:01 16:01+11:45
3865▲27 Camargo Nelson2738+16:5716:57 16:57+4:55
3937▼2 Rojas Maximo3339+17:1517:15 17:15+13:24
4072▲32 Medina Rafael2240+18:1018:10 18:10+1:03
415▼36 Ruiz Diego Fernando41+18:5318:53 18:53+17:13
4239▼3 Briceno Fernando2642+19:0419:04 19:04+14:58
4342▼1 Ramirez Yurgen1843+19:1219:12 19:12+15:03
449▼35 Yustre Kristian Javier2344+19:2819:28 19:28+17:13
456▼39 Torres Carlos2445+20:0220:02 20:02+18:13
467▼39 Montilla Darwin2246+20:1120:11 20:11+17:59
4740▼7 Caicedo Jhoan2447+21:1921:19 21:19+17:13
4818▼30 Betancur Jader2448+21:2721:27 21:27+18:32
4969▲20 Castro Carlos2749+21:3921:39 21:39+7:10
5062▲12 Rivas Angel2750+21:4821:48 21:48+11:10
5151- Henao Michael2651+21:5721:57 21:57+15:25
5246▼6 Moreno Omar2252+23:3023:30 23:30+17:59
5360▲7 Contreras Jose2453+24:1824:18 24:18+14:07
54*79*- Burmann Wolfgang2554*+24:5624:56 24:56+4:24
5454- Castellanos Óscar54+25:1025:10 25:10+17:13
5556▲1 Avendano Fabio3255+25:4625:46 25:46+17:13
5667▲11 GonzÁlez Jordan2256+26:1326:13 26:13+12:45
5763▲6 Rivas Robinson2257+27:5827:58 27:58+17:13
5829▼29 Sequera Pedro2558+28:0928:09 28:09+24:38
5968▲9 Molina Carlos Eduardo2259+31:5531:55 31:55+18:13
6075▲15 Vargas Fredy3460+32:1332:13 32:13+13:13
6190▲29 Rivera Kevin18Androni - Sidermec - Bottecchia61+32:4932:49 32:49+6:29
6226▼36 Alarcon Jose2862+35:2035:20 35:20+32:09
6371▲8 Roman Maky3063+35:3035:30 35:30+18:25
6480▲16 Belandria Juan64+36:3936:39 36:39+15:41
6577▲12 Perez Victor Rafael2165+36:4636:46 36:46+17:13
6678▲12 GÓmez Daniel2066+37:4237:42 37:42+17:59
6750▼17 Bonusi Raffaello24Androni - Sidermec - Bottecchia67+38:3938:39 38:39+32:09
6833▼35 Cabrera Hugo Horacio2468+39:0039:00 39:00+35:24
6959▼10 Carmona Neimanuel3269+39:2139:21 39:21+29:23
7052▼18 Gutierrez Pedro2770+39:2339:23 39:23+32:09
7153▼18 Pinto Luis2171+39:5339:53 39:53+32:09
7281▲9 Flores Ruben3672+40:0240:02 40:02+17:45
7394▲21 Ochoa Gaudy1973+40:2740:27 40:27+12:28
7455▼19 Frapporti Mattia22Androni - Sidermec - Bottecchia74+40:3240:32 40:32+32:09
7558▼17 Pinto Oscar75+41:3241:32 41:32+32:09
7684▲8 Nieto Cristofer2276+41:4541:45 41:45+17:13
7761▼16 Yaguaro Isaac2377+42:1842:18 42:18+32:07
78101▲23 Sanchez Yerzon3978+46:1946:19 46:19+15:14
7997▲18 Consuegra Frank2079+47:0047:00 47:00+18:18
8070▼10 Garcia Artur Alberto3280+47:0447:04 47:04+32:09
8164▼17 Torres Cristian2581+47:2847:28 47:28+36:13
8266▼16 Figueroa Jatniel2082+47:5247:52 47:52+35:49
8385▲2 Vielma Kleiver83+49:1249:12 49:12+24:38
84103▲19 Cruz Adellyn2584+51:4651:46 51:46+19:25
8574▼11 Rojas Alexander3385+51:5551:55 51:55+33:59
8679▼7 Diaz Luis Enrique2486+52:4252:42 52:42+32:03
87107▲20 Soca Alvaro2287+52:4552:45 52:45+15:37
88112▲24 García José2588+53:5753:57 53:57+12:04
8983▼6 Gutierrez Cristian2389+54:4854:48 54:48+31:19
9076▼14 Landaeta Giorgio3490+55:0255:02 55:02+35:49
9195▲4 Bravo Wilmer3591+56:2856:28 56:28+28:22
9286▼6 Botello Freddy92+57:3757:37 57:37+32:07
9389▼4 Castano Neubery2493+58:2258:22 58:22+32:09
94106▲12 Piñero José2094+59:0559:05 59:05+22:56
95100▲5 Mateus Ivan2395+59:4259:42 59:42+28:55
9696- Capellan Wellington2096+1:00:201:00:20 1:00:20+32:05
9787▼10 Palini Andrea27Androni - Sidermec - Bottecchia97+1:01:251:01:25 1:01:25+35:42
9899▲1 Linarez Leangel1998+1:02:271:02:27 1:02:27+32:50
9991▼8 Sanchez Augusto3399+1:02:411:02:41 1:02:41+36:13
10093▼7 Pérez Jesús Maria32100+1:03:171:03:17 1:03:17+35:26
10188▼13 Fuentes Yorman24101+1:03:471:03:47 1:03:47+38:01
10298▼4 Benfatto Marco29Androni - Sidermec - Bottecchia102+1:04:421:04:42 1:04:42+35:49
103111▲8 Piñeiros José27103+1:04:481:04:48 1:04:48+25:00
104102▼2 Rojas Mauro27104+1:05:311:05:31 1:05:31+33:59
105105- Tello Elias22105+1:07:591:07:59 1:07:59+32:09
106104▼2 Moreno José26106+1:08:241:08:24 1:08:24+34:33
107109▲2 Castillo Jose21107+1:10:201:10:20 1:10:20+32:09
108108- Ruiz Juan José28108+1:11:391:11:39 1:11:39+33:59
10992▼17 Leira Brandon23109+1:12:061:12:06 1:12:06+44:58
110113▲3 Vera Hernandez Hidalgo20110+1:14:581:14:58 1:14:58+32:09
111114▲3 Martinez Clever111+1:17:291:17:29 1:17:29+32:09
112117▲5 Sainz Alvaro31112+1:18:211:18:21 1:18:21+32:05
113119▲6 Palma Pedro27113+1:20:471:20:47 1:20:47+32:09
114115▲1 German Rafael Adolfo29114+1:21:201:21:20 1:21:20+35:52
115121▲6 Taborda Brayan21115+1:21:571:21:57 1:21:57+32:09
116110▼6 Valderrama Héctor22116+1:24:091:24:09 1:24:09+44:57
117118▲1 Marino Joel117+1:24:09,, 1:24:09+35:38
118123▲5 Sarmiento Johnatan Fernando24Massi - Kuwait Cycling Project118+1:24:221:24:22 1:24:22+28:25
119120▲1 Cornejo Cristian21119+1:25:291:25:29 1:25:29+35:42
120124▲4 Moreno Victor31120+1:30:501:30:50 1:30:50+32:05
121126▲5 Arquello Sergio Carlos23121+1:37:301:37:30 1:37:30+35:52
RnkPrev▼▲CorridoreAgeSquadraGCGC-TimeTempo
12▲1 Sosa Iván Ramiro19Androni - Sidermec - Bottecchia6+2:15 16:34:43 16:34:43
23▲1 Paredes Anderson Timoteo2117+3:511:36 1:36
34▲1 Mendoza Gabriel José2019+4:432:28 2:28
41▼3 Aular Orluis2029+9:157:00 7:00
57▲2 Sanchez Carlos2132+14:3212:17 12:17
66- Rico Fredy37+16:0113:46 13:46
75▼2 Ramirez Yurgen1843+19:1216:57 16:57
89▲1 Castellanos Óscar54+25:1022:55 22:55
917▲8 Rivera Kevin18Androni - Sidermec - Bottecchia61+32:4930:34 30:34
1014▲4 Belandria Juan64+36:3934:24 34:24
1112▲1 Perez Victor Rafael2165+36:4634:31 34:31
1213▲1 GÓmez Daniel2066+37:4235:27 35:27
138▼5 Pinto Luis2171+39:5337:38 37:38
1418▲4 Ochoa Gaudy1973+40:2738:12 38:12
1510▼5 Pinto Oscar75+41:3239:17 39:17
1620▲4 Consuegra Frank2079+47:0044:45 44:45
1711▼6 Figueroa Jatniel2082+47:5245:37 45:37
1822▲4 Soca Alvaro2287+52:4550:30 50:30
1916▼3 Botello Freddy92+57:3755:22 55:22
2019▼1 Capellan Wellington2096+1:00:2058:05 58:05
RnkPrev▼▲SquadraGCGC-TimeTempo
12▲1 Jhs Aves+ - 16:32:28 49:42:05 49:42:05
23▲1 Kino Tachira Royal Bikes+ - 16:32:280:25 0:25
3- Grupo JHS+ - 16:32:285:34 5:34

Informazioni sulla corsa

Vuelta al Táchira en Bicicleta logoDate: 17th January 2017
Velocità media del vincitore: 32.93 Km/h
Race category: Men Elite
Start/finish: Socopó › Santo Domingo de Mérida
Tipo di percorso:
Scale punti di PCS: 2.2.Stage

Profilo della corsa



Sito web:
twitter.com/lavueltadeoro
vueltaaltachira.com/

Race ranking position
256th
10 pnt
rankingbreakdown
Position and points as on startdate of race.

Pubblicità

Tutte le informazioni e le specifiche riportate su questo sito Web sono basate sulle ultime informazioni disponibili fornite da organizzazioni, team e corridori. Nessun diritto può essere ritirato da classifiche, risultati o statistiche come presentati su questo sito.
  0.13084 sec.